Location: Rancho Del Sol Observatory
(38.7214°N, 120.6350°W)
Time: 12:55:05
(UTC-08:00)

A-11 Canister half - Pass Details

Date: 27 January 2020
Orbit: 1517 x 1683 km, 47.2° (Epoch: 19 February)

Event Time Altitude Azimuth Distance (km) Brightness Sun altitude
Exits shadow 02:14:17 19° 69° (ENE) 3,041 10.8 -57.2°
Drops below altitude 10° 02:16:29 10° 75° (ENE) 3,683 11.3 -56.9°
Sets 02:19:41 0° 81° (E) 4,673 12.0 -56.3°
